{"data":{"norad_id":68405,"epoch":"2026-05-24T22:32:26.949120Z","epoch_age_seconds":80172,"freshness":"FRESH","line1":"1 68405U 26064A   26144.93920080  .00004378  00000+0  18500-3 0  9997","line2":"2 68405  97.4625 220.5768 0014694  35.2311 324.9895 15.23674431  8955","mean_motion":15.23674431,"eccentricity":0.0014694,"inclination_deg":97.4625,"raan_deg":220.5768,"arg_perigee_deg":35.2311,"mean_anomaly_deg":324.9895,"bstar":0.000185,"rev_number":895,"period_min":94.508378607818,"perigee_km":484.66970022027,"apogee_km":504.86779563228,"semimajor_km":6872.9057479263,"source":"CELESTRAK","updated_at":"2026-05-25T13:38:07.808364Z"}}